User: anonymous   Login
Location: Unspecified
(0.0000°N, 0.0000°E)
Time: 00:28:56
(UTC+00:00)
Language:

FAST - Orbit

View from above orbital plane
View from above orbital plane
View from above satellite
View from above satellite

Ground track
Ground track

The orbit data is extracted from the following two-line orbital elements,

1 24285U 96049A   18203.34316704 +.00001068 +00000-0 +85377-4 0  9990
2 24285 082.9621 148.9992 1872995 184.9585 173.0279 11.53420195897031
Epoch (UTC): 22 July 2018 08:14:09
Eccentricity: 0.1872995
inclination: 82.9621°
perigee height: 346 km
apogee height: 3446 km
right ascension of ascending node: 148.9992°
argument of perigee: 184.9585°
revolutions per day: 11.53420195
mean anomaly at epoch: 173.0279°
orbit number at epoch: 89703

The dashed part of the orbit path shows where the satellite is in the earth's shadow,  

DLR